Overview Statistics Trail Chart Weather Telemetry Raw packets
 

This is the latest recevied weather packets stored in our database for station/object N3EG. If no packets are shown the sender has not sent any weather packets the latest 10 day(s).

<< 94 95 96 97 98 99 100 >>
Time Temp. Humidity Pressure Rain* Wind** Luminosity Snow
1787952003 22.78° C 61% 1017.4 hPa 0 mm - - -
1787951703 22.22° C 61% 1017.5 hPa 0 mm - - -
1787951402 22.22° C 61% 1017.5 hPa 0 mm - - -
1787951103 21.67° C 65% 1017.6 hPa 0 mm - - -
1787950802 21.67° C 63% 1017.6 hPa 0 mm - - -
1787950510 22.22° C 64% 1017.7 hPa 0 mm - - -
1787950203 22.22° C 64% 1017.8 hPa 0 mm - - -
1787949903 22.22° C 64% 1017.8 hPa 0 mm - - -
1787949603 21.67° C 62% 1017.9 hPa 0 mm - - -
1787949303 21.67° C 63% 1018 hPa 0 mm - - -
1787949002 21.67° C 64% 1018 hPa 0 mm - - -
1787948703 21.67° C 64% 1018 hPa 0 mm - - -
1787948403 21.67° C 65% 1018.1 hPa 0 mm - - -
1787948102 21.11° C 64% 1018.2 hPa 0 mm - - -
1787947803 21.11° C 65% 1018.3 hPa 0 mm - - -
1787947503 21.11° C 66% 1018.2 hPa 0 mm - - -
1787947202 20.56° C 66% 1018.3 hPa 0 mm - - -
1787946903 20.56° C 68% 1018.4 hPa 0 mm - - -
1787946603 20° C 68% 1018.5 hPa 0 mm - - -
1787946302 20° C 69% 1018.5 hPa 0 mm - - -
1787946003 20° C 70% 1018.6 hPa 0 mm - - -
1787945703 19.44° C 70% 1018.6 hPa 0 mm - - -
1787945402 19.44° C 71% 1018.6 hPa 0 mm - - -
1787945103 19.44° C 71% 1018.7 hPa 0 mm - - -
1787944803 19.44° C 72% 1018.7 hPa 0 mm - - -

* Rain latest hour (hover to see other rain measurements)
** Current wind speed in m/s (hover to see current wind gust speed)